Weather History for Adana, Turkey

Change the Weather History Date:

Sunday, April 28, 2013

  Actual Average Record
Temperature  
Mean Temperature 75 °F -  
Max Temperature 91 °F 80 °F 91 °F (2012)
Min Temperature 59 °F 58 °F 41 °F (2003)
Cooling Degree Days 10    
Growing Degree Days 25 (Base 50)    
Moisture  
Dew Point 45 °F    
Average Humidity 36    
Maximum Humidity 72    
Minimum Humidity 13    
Precipitation  
Precipitation 0.00 in 0.06 in - ()
Sea Level Pressure  
Sea Level Pressure 29.99 in    
Wind  
Wind Speed 5 mph ()    
Max Wind Speed 9 mph    
Max Gust Speed -    
Averages and records for this station are not official NWS values.
T = Trace of Precipitation, MM = Missing Value Source: Averaged Metar Reports

Daily Weather History Graph

Daily Weather History Graph

Search for Another Location

Airport:

Trip Planner

Search our weather history database for the weather conditions in past years. The results will help you decide how hot, cold, wet, or windy it might be!

Date:

Astronomy

Apr. 28, 2013 Rise Set
Actual Time 5:48 AM EEST 7:25 PM EEST
Civil Twilight 5:20 AM EEST 7:52 PM EEST
Nautical Twilight 4:47 AM EEST 8:26 PM EEST
Astronomical Twilight 4:12 AM EEST 9:01 PM EEST
Moon 10:32 PM EEST (4/28) 7:46 AM EEST (4/28)
Length of Visible Light 14h 32m
Length of Day
13h 37m
Waning Gibbous, 91% of the Moon is Illuminated
Apr 28
Waning Gibbous
May 2
Last Quarter
May 10
New
May 18
First Quarter
May 25
Full

Hourly Weather History & Observations

Time (EEST) Temp. Dew Point Humidity Pressure Visibility Wind Dir Wind Speed Gust Speed Precip Events Conditions
12:20 AM 68.0 °F 50.0 °F 52% 29.98 in - North 4.6 mph - N/A   Clear
12:50 AM 66.2 °F 48.2 °F 52% 29.98 in - North 5.8 mph - N/A   Clear
1:20 AM 68.0 °F 50.0 °F 52% 29.98 in - ENE 6.9 mph - N/A   Clear
1:50 AM 64.4 °F 50.0 °F 59% 29.98 in - NE 8.1 mph - N/A   Clear
2:20 AM 66.2 °F 48.2 °F 52% 29.98 in - NNE 5.8 mph - N/A   Clear
2:50 AM 66.2 °F 50.0 °F 56% 29.98 in - NE 8.1 mph - N/A   Clear
3:20 AM 64.4 °F 50.0 °F 59% 29.98 in - NNE 8.1 mph - N/A   Clear
3:50 AM 64.4 °F 48.2 °F 56% 29.98 in - NNE 6.9 mph - N/A   Clear
4:20 AM 62.6 °F 48.2 °F 59% 29.98 in - Variable 1.2 mph - N/A   Clear
4:50 AM 60.8 °F 50.0 °F 68% 29.98 in - Variable 2.3 mph - N/A   Clear
5:20 AM 59.0 °F 50.0 °F 72% 29.98 in - Calm Calm - N/A   Clear
5:50 AM 60.8 °F 50.0 °F 68% 29.98 in - Calm Calm - N/A   Clear
6:20 AM 60.8 °F 50.0 °F 68% 29.98 in - Calm Calm - N/A   Clear
6:50 AM 64.4 °F 51.8 °F 64% 29.98 in - Calm Calm - N/A   Clear
7:20 AM 71.6 °F 53.6 °F 53% 30.01 in - Calm Calm - N/A   Clear
7:50 AM 75.2 °F 51.8 °F 44% 30.01 in - Variable 3.5 mph - N/A   Clear
8:20 AM 75.2 °F 48.2 °F 38% 30.01 in - North 6.9 mph - N/A   Clear
8:50 AM 78.8 °F 46.4 °F 32% 30.01 in - NNE 8.1 mph - N/A   Clear
9:20 AM 80.6 °F 50.0 °F 34% 30.01 in - NE 6.9 mph - N/A   Clear
9:50 AM 82.4 °F 50.0 °F 32% 30.01 in - NE 6.9 mph - N/A   Clear
10:20 AM 84.2 °F 50.0 °F 30% 30.01 in - NE 9.2 mph - N/A   Clear
10:50 AM 86.0 °F 46.4 °F 25% 30.01 in - NNE 6.9 mph - N/A   Clear
11:20 AM 87.8 °F 44.6 °F 22% 30.01 in - ENE 8.1 mph - N/A   Clear
11:50 AM 87.8 °F 41.0 °F 19% 30.01 in - NE 8.1 mph - N/A   Clear
12:20 PM 89.6 °F 37.4 °F 16% 30.01 in - ESE 6.9 mph - N/A   Clear
12:50 PM 89.6 °F 44.6 °F 21% 30.01 in - Variable 5.8 mph - N/A   Clear
1:20 PM 89.6 °F 35.6 °F 15% 30.01 in - East 9.2 mph - N/A   Clear
1:50 PM 89.6 °F 39.2 °F 17% 30.01 in - Variable 6.9 mph - N/A   Clear
2:20 PM 91.4 °F 37.4 °F 15% 29.98 in - North 4.6 mph - N/A   Clear
2:50 PM 91.4 °F 35.6 °F 14% 29.98 in - Variable 3.5 mph - N/A   Clear
3:20 PM 91.4 °F 35.6 °F 14% 29.98 in - WSW 8.1 mph - N/A   Clear
3:50 PM 91.4 °F 37.4 °F 15% 29.98 in - Variable 5.8 mph - N/A   Clear
4:20 PM 91.4 °F 39.2 °F 16% 29.98 in - Variable 3.5 mph - N/A   Clear
4:50 PM 91.4 °F 33.8 °F 13% 29.98 in - Variable 2.3 mph - N/A   Clear
5:20 PM 89.6 °F 35.6 °F 15% 29.98 in - South 4.6 mph - N/A   Clear
5:50 PM 89.6 °F 37.4 °F 16% 29.98 in - South 5.8 mph - N/A   Clear
6:20 PM 87.8 °F 39.2 °F 18% 29.98 in - SW 5.8 mph - N/A   Clear
6:50 PM 86.0 °F 42.8 °F 22% 29.98 in - SSW 3.5 mph - N/A   Clear
7:20 PM 78.8 °F 46.4 °F 32% 29.98 in - SW 6.9 mph - N/A   Clear
7:50 PM 80.6 °F 42.8 °F 26% 29.98 in - West 5.8 mph - N/A   Clear
8:20 PM 80.6 °F 42.8 °F 26% 29.98 in - NW 5.8 mph - N/A   Clear
8:50 PM 78.8 °F 44.6 °F 30% 29.98 in - NW 5.8 mph - N/A   Clear
9:20 PM 77.0 °F 42.8 °F 29% 30.01 in - NW 6.9 mph - N/A   Clear
9:50 PM 78.8 °F 44.6 °F 30% 30.01 in - NNW 5.8 mph - N/A   Clear
10:20 PM 77.0 °F 44.6 °F 32% 30.01 in - North 5.8 mph - N/A   Clear
10:50 PM 75.2 °F 46.4 °F 36% 30.01 in - North 5.8 mph - N/A   Clear
11:20 PM 75.2 °F 46.4 °F 36% 30.01 in - North 6.9 mph - N/A   Clear
11:50 PM 73.4 °F 44.6 °F 36% 30.01 in - North 4.6 mph - N/A   Clear